Notices

What's New in latest Release from April 7th, 2021:

- Updated Glossary, including Speed of Maximum Gust, and Total Hourly Precipitation

- Updated national and regional climate services offices contacts and prices information

- Addition of station inventory lists for 1981-2010, 1971-2000, and 1961-1990 Normals.

If you haven't already, please take our survey and provide feedback about our website: https://eccc.sondage-survey.ca/f/LanguageSelection.aspx?s=442ca660-fcf1-47c0-95a9-59707d6fd709

Hourly Data Report for December 23, 2004

SHERBROOKE A
QUEBEC

45°26'00.000" N
71°41'00.000" W
241.40 m
7028124
71610
YSC

Download Data

Hourly Data (December 2004)
Hourly Data Report for December 23, 2004
TIME
LST
Temp Definition
°C
Dew Point Definition
°C
Rel Hum Definition
%
Precip. Amount Definition
mm

Wind Dir Definition
10's deg

Wind Spd Definition
km/h
Visibility Definition
km
Stn Press Definition
kPa
Hmdx Definition


Wind Chill Definition


Weather Definition


00:00 0.5 -0.1 96   8 4 2.9 99.39      
01:00 0.2 -0.5 95   8 6 1.9 99.39      
02:00 0.3 -0.4 95   11 6 2.4 99.40      
03:00 0.0 -0.7 95   9 7 1.3 99.35   -2  
04:00 -1.0 -1.9 94   12 4 1.8 99.30   -2  
05:00 -1.8 -2.7 94   9 6 1.9 99.24   -4  
06:00 0.1 -0.5 96   6 4 3.9 99.20     Rain
07:00 0.5 -0.4 94   9 6 6.4 99.11      
08:00 0.7 -0.3 93   9 7 19.3 99.03     Cloudy
09:00 1.6 0.5 92   8 7 19.3 98.97     Cloudy
10:00 4.4 2.2 86   14 13 19.3 98.91     Rain
11:00 5.4 3.0 84   13 24 19.3 98.65     Cloudy
12:00 6.8 3.9 82   14 26 19.3 98.37     Cloudy
13:00 7.4 4.4 81   14 26 19.3 98.08     Cloudy
14:00 9.0 5.2 77   15 19 19.3 97.85     Cloudy
15:00 9.7 5.4 75   16 28 19.3 97.66     Rain
16:00 9.6 6.4 80   15 28 19.3 97.50     Rain
17:00 10.1 6.9 80   15 32 19.3 97.37     Rain
18:00 9.3 7.5 89   16 19 15.0 97.16      
19:00 9.6 7.8 89   16 24 11.3 97.03     Rain
20:00 8.6 7.9 95   23 20 5.6 97.34     Moderate Rain
21:00 7.2 6.7 97   17 11 15.0 97.26     Rain
22:00 2.6 1.2 90   27 22 15.0 97.64     Drizzle
23:00 0.8 -2.1 81   27 24 15.0 97.84     Snow

Notes on Data Quality.

Legend

  • E = Estimated
  • M = Missing
  • NA = Not Available*
  • [empty] = Indicates an unobserved value
Date modified: